Weather in Krinichnoe

Ukraine / Odesa District     45°32′09″N   28°40′04″E
temp.,
°C
wind,
m/s
gust,
m/s
humid.,
%
clouds,
%
prec.,
mm/h
press.,
hPa
HPBL,
m
28 july, wed
wed2800:00+25s33491 0.0 101734
03:00+24s33491 0.0 101754
06:00+24sw23510 0.0 101656
09:00+27sw34420 0.0 1016307
12:00+31wsw44375 0.0 1016582
15:00+34sw33335 0.0 10141497
18:00+34ssw54341 0.0 1013841
21:00+27sse5105498 0.0 1013197
29 july, thu
thu2900:00+26wsw336397 0.6 101440
03:00+24s456514 0.8 101393
06:00+22w33694 0.0 101266
09:00+27wsw23565 0.0 1012312
12:00+32wsw46410 0.0 1012643
15:00+35sw44330 0.0 1010809
18:00+34nw773497 0.0 1010721
21:00+25n7115999 6.1 1011167
30 july, fri
fri3000:00+23sw346510 0.0 101166
03:00+23nw45630 0.0 101192
06:00+21n49810 0.0 1012230
09:00+25n55650 0.0 1013479
12:00+30n55480 0.0 10121101
15:00+32nnw44390 0.0 10111537
18:00+32n34370 0.0 10101483
21:00+27nne454970 0.0 101151
31 july, sat
sat3100:00+24sse23690 0.0 101145
03:00+23sse22710 0.0 101133
06:00+23se22702 0.0 101141
09:00+28se33540 0.0 1011420
12:00+31s23401 0.0 10111287
15:00+34sw43353 0.0 10091515
18:00+32s88403 0.0 1009771
21:00+24sse486781 0.7 1010171
1 august, sun
sun100:00+24sw3472100 1.1 101291
03:00+24ene227479 1.1 100933
06:00+23wnw34745 0.0 101179
09:00+26w22560 0.0 1011381
12:00+30wsw33430 0.0 1011856
15:00+32w33380 0.0 1010831
18:00+33ssw23380 0.0 1009878
21:00+26sse610570 0.0 1009225